Satellite: PO-28
Catalog number: 22829
Epoch time:      08051.84639924
Element set:    0880
Inclination:      098.3503 deg
RA of node:       018.4486 deg
Eccentricity:    0.0009195
Arg of perigee:   212.6456 deg
Mean anomaly:     147.4162 deg
Mean motion:   14.30181059 rev/day
Decay rate:        4.0e-07 rev/day^2
Epoch rev:           75135
Checksum:              310

Satellite: GO-32
Catalog number: 25397
Epoch time:      08052.75215706
Element set:     531
Inclination:      098.3806 deg
RA of node:       093.5817 deg
Eccentricity:    0.0001122
Arg of perigee:   171.6046 deg
Mean anomaly:     188.5141 deg
Mean motion:   14.23138211 rev/day
Decay rate:      -1.23e-06 rev/day^2
Epoch rev:           49965
Checksum:              290

Satellite: MO-46
Catalog number: 26548
Epoch time:      08052.66001480
Element set:      29
Inclination:      064.5576 deg
RA of node:       130.8375 deg
Eccentricity:    0.0016166
Arg of perigee:   339.8298 deg
Mean anomaly:     020.2166 deg
Mean motion:   14.83228711 rev/day
Decay rate:        2.2e-07 rev/day^2
Epoch rev:           40053
Checksum:              289

Satellite: NO-44
Catalog number: 26931
Epoch time:      08052.72494511
Element set:     811
Inclination:      067.0504 deg
RA of node:       224.6742 deg
Eccentricity:    0.0004784
Arg of perigee:   270.4756 deg
Mean anomaly:     089.5774 deg
Mean motion:   14.29511562 rev/day
Decay rate:      -2.24e-06 rev/day^2
Epoch rev:           33376
Checksum:              307

Satellite: SO-50
Catalog number: 27607
Epoch time:      08052.44038853
Element set:     534
Inclination:      064.5590 deg
RA of node:       048.1859 deg
Eccentricity:    0.0080589
Arg of perigee:   302.7717 deg
Mean anomaly:     056.5628 deg
Mean motion:   14.71329203 rev/day
Decay rate:       1.24e-06 rev/day^2
Epoch rev:           27779
Checksum:              323

Satellite: CO-55
Catalog number: 27844
Epoch time:      08052.72793794
Element set:     241
Inclination:      098.7194 deg
RA of node:       062.5998 deg
Eccentricity:    0.0010871
Arg of perigee:   091.8709 deg
Mean anomaly:     268.3699 deg
Mean motion:   14.20561365 rev/day
Decay rate:        4.7e-07 rev/day^2
Epoch rev:           24090
Checksum:              346

Satellite: CO-57
Catalog number: 27848
Epoch time:      08051.58336150
Element set:     194
Inclination:      098.7192 deg
RA of node:       060.5918 deg
Eccentricity:    0.0010551
Arg of perigee:   097.5354 deg
Mean anomaly:     262.7012 deg
Mean motion:   14.20372948 rev/day
Decay rate:        9.0e-08 rev/day^2
Epoch rev:           24071
Checksum:              305

Satellite: AO-51
Catalog number: 28375
Epoch time:      08052.64069054
Element set:      36
Inclination:      098.0840 deg
RA of node:       083.6975 deg
Eccentricity:    0.0084004
Arg of perigee:   145.6697 deg
Mean anomaly:     214.9966 deg
Mean motion:   14.40597254 rev/day
Decay rate:        5.0e-08 rev/day^2
Epoch rev:           19162
Checksum:              324

Satellite: CO-56
Catalog number: 28941
Epoch time:      08051.93488420
Element set:    0871
Inclination:      098.1048 deg
RA of node:       147.2675 deg
Eccentricity:    0.0188798
Arg of perigee:   105.4568 deg
Mean anomaly:     256.7598 deg
Mean motion:   15.50644325 rev/day
Decay rate:     2.7763e-04 rev/day^2
Epoch rev:           11183
Checksum:              359

Satellite: NO-61
Catalog number: 29664
Epoch time:      07359.16654419
Element set:     738
Inclination:      051.6179 deg
RA of node:       150.0690 deg
Eccentricity:    0.0003189
Arg of perigee:   248.8461 deg
Mean anomaly:     111.8136 deg
Mean motion:   16.51627846 rev/day
Decay rate:  1.4620719e-01 rev/day^2
Epoch rev:            5877
Checksum:              345

Satellite: CP4
Catalog number: 31122
Epoch time:      08051.85057192
Element set:     267
Inclination:      098.0563 deg
RA of node:       121.7330 deg
Eccentricity:    0.0084736
Arg of perigee:   334.0503 deg
Mean anomaly:     025.6412 deg
Mean motion:   14.55088963 rev/day
Decay rate:       5.49e-06 rev/day^2
Epoch rev:            4501
Checksum:              279

Satellite: CP3
Catalog number: 31128
Epoch time:      08052.66313517
Element set:     263
Inclination:      098.0543 deg
RA of node:       120.9616 deg
Eccentricity:    0.0102163
Arg of perigee:   335.7281 deg
Mean anomaly:     023.9149 deg
Mean motion:   14.51915229 rev/day
Decay rate:       -4.8e-07 rev/day^2
Epoch rev:            4502
Checksum:              273

Satellite: LIBERT
Catalog number: 31129
Epoch time:      08052.78216199
Element set:     767
Inclination:      098.0542 deg
RA of node:       121.1064 deg
Eccentricity:    0.0102435
Arg of perigee:   335.3076 deg
Mean anomaly:     024.3203 deg
Mean motion:   14.52005060 rev/day
Decay rate:       3.37e-06 rev/day^2
Epoch rev:            4502
Checksum:              249

/EX
SB KEPS @ AMSAT  $ORB08052.W
Orbital Elements  08052.WEATHER

HR AMSAT ORBITAL ELEMENTS FOR WEATHER SATELLITES
FROM WA5QGD FORT WORTH,TX February 21, 2008
Send Subscribe/unsubscribe to KEPS at 
http://www.amsat.org/mailman/listinfo/keps
BID: ORB08052.W
TO ALL RADIO AMATEURS BT

